TimeEST,TemperatureF,Dew PointF,Humidity,Sea Level PressureIn,VisibilityMPH,Wind Direction,Wind SpeedMPH,Gust SpeedMPH,PrecipitationIn,Events,Conditions,WindDirDegrees,DateUTC
12:53 AM,45.0,30.0,56,30.26,10.0,South,5.8,-,N/A,,Clear,190,2012-12-01 05:53:00
1:53 AM,45.0,30.9,58,30.26,10.0,South,5.8,-,N/A,,Clear,190,2012-12-01 06:53:00
2:53 AM,45.0,30.9,58,30.27,10.0,South,6.9,-,N/A,,Clear,180,2012-12-01 07:53:00
3:53 AM,43.0,30.9,62,30.26,10.0,South,9.2,-,N/A,,Clear,180,2012-12-01 08:53:00
4:53 AM,43.0,30.9,62,30.27,10.0,South,6.9,-,N/A,,Clear,180,2012-12-01 09:53:00
5:53 AM,42.1,30.9,65,30.30,10.0,Calm,Calm,-,N/A,,Clear,0,2012-12-01 10:53:00
7:53 AM,42.1,30.9,65,30.32,10.0,South,8.1,-,N/A,,Clear,170,2012-12-01 12:53:00
8:53 AM,44.1,32.0,63,30.33,10.0,South,6.9,-,N/A,,Clear,170,2012-12-01 13:53:00
9:53 AM,46.9,34.0,61,30.33,10.0,SSW,6.9,-,N/A,,Clear,200,2012-12-01 14:53:00
10:53 AM,51.1,36.0,56,30.33,10.0,South,5.8,-,N/A,,Clear,190,2012-12-01 15:53:00
11:53 AM,54.0,36.0,51,30.31,10.0,SW,10.4,-,N/A,,Clear,230,2012-12-01 16:53:00
1:53 PM,57.0,37.9,49,30.26,10.0,South,11.5,-,N/A,,Clear,190,2012-12-01 18:53:00
2:53 PM,59.0,39.0,48,30.25,10.0,South,8.1,-,N/A,,Clear,190,2012-12-01 19:53:00
3:53 PM,57.9,39.0,49,30.26,10.0,South,8.1,-,N/A,,Scattered Clouds,190,2012-12-01 20:53:00
4:53 PM,55.0,37.9,53,30.26,10.0,South,6.9,-,N/A,,Clear,180,2012-12-01 21:53:00
5:53 PM,54.0,37.9,55,30.26,10.0,SSE,5.8,-,N/A,,Clear,150,2012-12-01 22:53:00
6:53 PM,52.0,37.9,59,30.27,10.0,SSE,5.8,-,N/A,,Clear,150,2012-12-01 23:53:00
7:53 PM,52.0,37.9,59,30.26,10.0,SSE,9.2,-,N/A,,Clear,150,2012-12-02 00:53:00
8:53 PM,52.0,39.0,61,30.25,10.0,SSE,10.4,-,N/A,,Clear,160,2012-12-02 01:53:00
9:53 PM,51.1,39.0,63,30.25,10.0,SSE,6.9,-,N/A,,Partly Cloudy,160,2012-12-02 02:53:00
10:53 PM,50.0,39.0,66,30.23,10.0,SSE,8.1,-,N/A,,Clear,150,2012-12-02 03:53:00
11:53 PM,51.1,39.0,63,30.22,10.0,SSE,10.4,-,N/A,,Clear,160,2012-12-02 04:53:00